Montreal Mirabel, Quebec

7:51 AM EDT on July 28, 2017 (GMT -0400)
Montreal Mirabel

Weather History for CYMX - February, 2013

Change the Weather History Date:

Wednesday, February 6, 2013

  Actual Average Record
Temperature  
Mean Temperature 11 °F -  
Max Temperature 19 °F 21 °F 35 °F (2011)
Min Temperature 1 °F 4 °F -16 °F (2015)
Degree Days  
Heating Degree Days 54    
Moisture  
Dew Point -2 °F    
Average Humidity 64    
Maximum Humidity 85    
Minimum Humidity 35    
Precipitation  
Precipitation 0.00 in - - ()
Sea Level Pressure  
Sea Level Pressure 30.06 in    
Wind  
Wind Speed 5 mph ()    
Max Wind Speed 14 mph    
Max Gust Speed 25 mph    
Visibility 8.9 miles    
Events Snow    
Averages and records for this station are not official NWS values.
T = Trace of Precipitation, MM = Missing Value Source: Averaged Metar Reports

Daily Weather History Graph

Daily Weather History Graph

Search for Another Location

Airport or City:

Trip Planner

Search our weather history database for the weather conditions in past years. The results will help you decide how hot, cold, wet, or windy it might be!

Date:

Astronomy

Feb. 06, 2013 Rise Set
Actual Time 7:10 AM EST 5:10 PM EST
Civil Twilight 6:39 AM EST 5:41 PM EST
Nautical Twilight 6:04 AM EST 6:16 PM EST
Astronomical Twilight 5:29 AM EST 6:51 PM EST
Moon 3:58 AM EST (2/6) 1:19 PM EST (2/6)
Length of Visible Light 11h 01m
Length of Day
9h 59m
Waning Crescent, 17% of the Moon is Illuminated
Feb 6
Waning Crescent
Feb 10
New
Feb 17
First Quarter
Feb 25
Full
Mar 4
Last Quarter

Hourly Weather History & Observations

Time (EST) Temp. Windchill Dew Point Humidity Pressure Visibility Wind Dir Wind Speed Gust Speed Precip Events Conditions
12:00 AM 6.8 °F - 1.4 °F 79% 29.92 in 25.0 mi NE 2.3 mph - N/A   Mostly Cloudy
1:00 AM 6.8 °F -3.5 °F 1.4 °F 79% 29.89 in 25.0 mi NE 5.8 mph - N/A   Mostly Cloudy
1:42 AM 6.8 °F -2.0 °F 3.2 °F 85% 29.88 in 25.0 mi NE 4.6 mph - N/A   Mostly Cloudy
2:00 AM 8.6 °F 0.1 °F 3.2 °F 79% 29.88 in 25.0 mi NE 4.6 mph - N/A   Mostly Cloudy
3:00 AM 8.6 °F 2.0 °F 3.2 °F 79% 29.87 in 25.0 mi NNE 3.5 mph - N/A   Overcast
3:09 AM 8.6 °F - 3.2 °F 79% 29.87 in 8.0 mi NE 2.3 mph - N/A Snow Light Snow
4:00 AM 8.6 °F 0.1 °F 3.2 °F 79% 29.86 in 3.0 mi NE 4.6 mph - N/A Snow Light Snow
5:00 AM 8.6 °F 0.1 °F 5.0 °F 85% 29.86 in 4.0 mi NE 4.6 mph - N/A Snow Light Snow
6:00 AM 8.6 °F 2.0 °F 5.0 °F 85% 29.87 in 3.0 mi North 3.5 mph - N/A Snow Light Snow
7:00 AM 8.6 °F 2.0 °F 5.0 °F 85% 29.90 in 10.0 mi North 3.5 mph - N/A Snow Light Snow
8:00 AM 6.8 °F -0.1 °F 3.2 °F 85% 29.93 in 10.0 mi SW 3.5 mph - N/A Snow Light Snow
9:00 AM 10.4 °F 4.0 °F 5.0 °F 79% 29.95 in 12.0 mi WSW 3.5 mph - N/A Snow Light Snow
9:36 AM 12.2 °F 1.7 °F 6.8 °F 79% 29.96 in 15.0 mi WSW 6.9 mph - N/A   Partly Cloudy
10:00 AM 14.0 °F 3.9 °F 6.8 °F 73% 29.98 in 15.0 mi WSW 6.9 mph - N/A   Partly Cloudy
11:00 AM 19.4 °F 7.2 °F 6.8 °F 58% 30.01 in 25.0 mi West 11.5 mph 19.6 mph N/A Snow Low Drifting Snow
12:00 PM 17.6 °F 5.7 °F 1.4 °F 49% 30.04 in 30.0 mi West 10.4 mph 18.4 mph N/A Snow Low Drifting Snow
1:00 PM 15.8 °F 1.4 °F -7.6 °F 35% 30.08 in 45.0 mi NW 13.8 mph 25.3 mph N/A Snow Low Drifting Snow
2:00 PM 15.8 °F 2.7 °F -5.8 °F 38% 30.11 in 45.0 mi WNW 11.5 mph 19.6 mph N/A Snow Low Drifting Snow
3:00 PM 14.0 °F 2.0 °F -5.8 °F 41% 30.14 in 45.0 mi West 9.2 mph - N/A Snow Low Drifting Snow
4:00 PM 12.2 °F 0.7 °F -7.6 °F 41% 30.19 in 45.0 mi WNW 8.1 mph - N/A   Clear
5:00 PM 10.4 °F -3.3 °F -9.4 °F 41% 30.24 in 25.0 mi WNW 10.4 mph 17.3 mph N/A   Mostly Cloudy
6:00 PM 6.8 °F -6.9 °F -9.4 °F 48% 30.29 in 25.0 mi West 9.2 mph - N/A   Scattered Clouds
7:00 PM 5.0 °F -5.6 °F -11.2 °F 47% 30.33 in 25.0 mi WNW 5.8 mph - N/A   Scattered Clouds
8:00 PM 5.0 °F -6.9 °F -13.0 °F 43% 30.35 in 25.0 mi WNW 6.9 mph - N/A   Scattered Clouds
9:00 PM 3.2 °F -4.2 °F -13.0 °F 47% 30.39 in 25.0 mi West 3.5 mph - N/A   Partly Cloudy
10:00 PM 3.2 °F -6.2 °F -13.0 °F 47% 30.40 in 25.0 mi WNW 4.6 mph - N/A   Partly Cloudy
11:00 PM 1.4 °F -8.3 °F -13.0 °F 51% 30.42 in 25.0 mi WNW 4.6 mph - N/A   Partly Cloudy